Boonville, MO

11:17 PM CDT on August 24, 2016 (GMT -0500)
Viertel Memorial

Weather History for KVER - May, 2014

Change the Weather History Date:

Sunday, May 4, 2014

  Actual Average Record
Temperature  
Mean Temperature 68 °F -  
Max Temperature 86 °F 68 °F 88 °F (1949)
Min Temperature 50 °F 48 °F 33 °F (1954)
Cooling Degree Days 3    
Growing Degree Days 18 (Base 50)    
Moisture  
Dew Point 47 °F    
Average Humidity 51    
Maximum Humidity 83    
Minimum Humidity 26    
Precipitation  
Precipitation 0.00 in - - ()
Sea Level Pressure  
Sea Level Pressure 29.86 in    
Wind  
Wind Speed 5 mph (East)    
Max Wind Speed 15 mph    
Max Gust Speed 16 mph    
Visibility 10 miles    
Events      
Averages and records for this station are not official NWS values.
T = Trace of Precipitation, MM = Missing Value Source: NWS Daily Summary

Daily Weather History Graph

Daily Weather History Graph

Search for Another Location

Airport or City:

Trip Planner

Search our weather history database for the weather conditions in past years. The results will help you decide how hot, cold, wet, or windy it might be!

Date:

Astronomy

May. 04, 2014 Rise Set
Actual Time 6:09 AM CDT 8:06 PM CDT
Civil Twilight 5:40 AM CDT 8:35 PM CDT
Nautical Twilight 5:04 AM CDT 9:10 PM CDT
Astronomical Twilight 4:26 AM CDT 9:49 PM CDT
Moon 10:34 AM CDT (5/4) 12:11 AM CDT (5/4)
Length of Visible Light 14h 55m
Length of Day
13h 57m
Waxing Crescent, 28% of the Moon is Illuminated
May 4
Waxing Crescent
May 6
First Quarter
May 14
Full
May 21
Last Quarter
May 28
New

Hourly Weather History & Observations

Time (CDT) Temp. Dew Point Humidity Pressure Visibility Wind Dir Wind Speed Gust Speed Precip Events Conditions
12:15 AM 58.1 °F 43.9 °F 59% 29.93 in 10.0 mi SSE 3.5 mph - N/A   Clear
12:35 AM 57.4 °F 44.6 °F 62% 29.93 in 10.0 mi Calm Calm - N/A   Clear
12:55 AM 56.3 °F 45.0 °F 66% 29.93 in 10.0 mi Calm Calm - N/A   Clear
1:15 AM 56.7 °F 44.2 °F 63% 29.93 in 10.0 mi Calm Calm - N/A   Clear
1:35 AM 55.8 °F 44.4 °F 66% 29.93 in 10.0 mi Calm Calm - N/A   Clear
1:55 AM 54.5 °F 44.6 °F 69% 29.93 in 10.0 mi SSE 3.5 mph - N/A   Clear
2:15 AM 52.3 °F 44.8 °F 75% 29.93 in 10.0 mi Calm Calm - N/A   Clear
2:35 AM 52.7 °F 45.3 °F 76% 29.91 in 10.0 mi SE 9.2 mph - N/A   Clear
2:55 AM 52.7 °F 45.3 °F 76% 29.92 in 10.0 mi Calm Calm - N/A   Clear
3:15 AM 53.8 °F 44.4 °F 71% 29.92 in 10.0 mi East 4.6 mph - N/A   Clear
3:35 AM 53.8 °F 44.2 °F 70% 29.91 in 10.0 mi ESE 8.1 mph - N/A   Clear
3:55 AM 53.4 °F 43.9 °F 70% 29.91 in 10.0 mi SSE 3.5 mph - N/A   Clear
4:15 AM 52.7 °F 44.1 °F 72% 29.90 in 10.0 mi SE 5.8 mph - N/A   Clear
4:35 AM 51.8 °F 43.9 °F 74% 29.91 in 10.0 mi Calm Calm - N/A   Clear
4:55 AM 52.7 °F 43.5 °F 71% 29.91 in 10.0 mi East 3.5 mph - N/A   Clear
5:15 AM 51.3 °F 43.5 °F 75% 29.91 in 10.0 mi ENE 3.5 mph - N/A   Clear
5:35 AM 50.7 °F 44.4 °F 79% 29.91 in 10.0 mi ENE 3.5 mph - N/A   Clear
5:55 AM 50.0 °F 45.0 °F 83% 29.92 in 10.0 mi NNE 3.5 mph - N/A   Clear
6:15 AM 50.7 °F 45.5 °F 82% 29.93 in 10.0 mi NE 4.6 mph - N/A   Clear
6:35 AM 50.5 °F 45.7 °F 83% 29.93 in 10.0 mi ENE 5.8 mph - N/A   Clear
6:55 AM 51.8 °F 45.1 °F 78% 29.93 in 10.0 mi Calm Calm - N/A   Clear
7:15 AM 52.9 °F 45.9 °F 77% 29.94 in 10.0 mi Calm Calm - N/A   Clear
7:35 AM 55.0 °F 46.9 °F 74% 29.94 in 10.0 mi ENE 4.6 mph - N/A   Clear
7:55 AM 57.7 °F 46.4 °F 66% 29.94 in 10.0 mi ENE 4.6 mph - N/A   Clear
8:15 AM 59.4 °F 46.0 °F 61% 29.94 in 10.0 mi ENE 8.1 mph - N/A   Clear
8:35 AM 60.8 °F 46.4 °F 59% 29.93 in 10.0 mi East 9.2 mph - N/A   Clear
8:55 AM 63.1 °F 47.5 °F 57% 29.93 in 10.0 mi East 8.1 mph - N/A   Clear
9:15 AM 65.1 °F 47.7 °F 53% 29.93 in 10.0 mi East 6.9 mph - N/A   Clear
9:35 AM 66.7 °F 47.3 °F 50% 29.93 in 10.0 mi East 6.9 mph - N/A   Clear
9:55 AM 69.1 °F 47.7 °F 46% 29.92 in 10.0 mi East 6.9 mph - N/A   Clear
10:15 AM 70.9 °F 47.7 °F 44% 29.91 in 10.0 mi ESE 6.9 mph - N/A   Clear
10:35 AM 72.3 °F 48.9 °F 43% 29.91 in 10.0 mi East 6.9 mph - N/A   Clear
10:55 AM 73.6 °F 49.8 °F 43% 29.91 in 10.0 mi SE 6.9 mph - N/A   Clear
11:15 AM 74.8 °F 48.6 °F 39% 29.90 in 10.0 mi ESE 6.9 mph - N/A   Clear
11:35 AM 76.3 °F 48.4 °F 37% 29.90 in 10.0 mi ESE 5.8 mph - N/A   Clear
11:55 AM 77.7 °F 46.4 °F 33% 29.90 in 10.0 mi South 3.5 mph - N/A   Clear
12:15 PM 78.3 °F 46.6 °F 33% 29.88 in 7.0 mi ESE 3.5 mph - N/A   Clear
12:35 PM 79.2 °F 46.9 °F 32% 29.87 in 10.0 mi ESE 9.2 mph - N/A   Clear
12:55 PM 79.7 °F 47.8 °F 33% 29.86 in 10.0 mi East 6.9 mph - N/A   Clear
1:15 PM 80.4 °F 46.9 °F 31% 29.85 in 10.0 mi East 4.6 mph - N/A   Clear
1:35 PM 81.3 °F 47.1 °F 30% 29.85 in 10.0 mi East 10.4 mph - N/A   Clear
1:55 PM 82.0 °F 48.4 °F 31% 29.84 in 10.0 mi East 8.1 mph - N/A   Clear
2:15 PM 82.8 °F 48.4 °F 30% 29.83 in 10.0 mi ENE 8.1 mph - N/A   Clear
2:35 PM 83.3 °F 47.3 °F 28% 29.83 in 10.0 mi SE 4.6 mph - N/A   Clear
2:55 PM 84.0 °F 47.8 °F 28% 29.82 in 10.0 mi ESE 5.8 mph - N/A   Clear
3:15 PM 84.6 °F 47.7 °F 28% 29.81 in 10.0 mi East 4.6 mph - N/A   Clear
3:35 PM 85.1 °F 47.1 °F 27% 29.80 in 10.0 mi East 8.1 mph - N/A   Clear
3:55 PM 85.8 °F 48.9 °F 28% 29.79 in 10.0 mi East 8.1 mph - N/A   Clear
4:15 PM 86.2 °F 48.0 °F 27% 29.78 in 10.0 mi East 8.1 mph - N/A   Clear
4:35 PM 85.1 °F 48.0 °F 27% 29.78 in 10.0 mi ESE 3.5 mph - N/A   Clear
4:55 PM 86.2 °F 47.5 °F 26% 29.77 in 10.0 mi East 5.8 mph - N/A   Clear
5:15 PM 86.2 °F 48.6 °F 27% 29.76 in 10.0 mi ENE 8.1 mph - N/A   Clear
5:35 PM 85.8 °F 49.3 °F 28% 29.76 in 10.0 mi ENE 8.1 mph - N/A   Clear
5:55 PM 84.7 °F 50.0 °F 30% 29.76 in 10.0 mi NE 11.5 mph - N/A   Clear
6:15 PM 82.4 °F 51.3 °F 34% 29.75 in 10.0 mi NE 11.5 mph - N/A   Clear
6:35 PM 80.6 °F 51.4 °F 36% 29.76 in 10.0 mi NE 8.1 mph - N/A   Clear
6:55 PM 79.7 °F 51.3 °F 37% 29.77 in 10.0 mi NE 10.4 mph - N/A   Clear
7:15 PM 77.7 °F 51.6 °F 40% 29.77 in 10.0 mi ENE 9.2 mph 16.1 mph N/A   Clear
7:35 PM 76.1 °F 50.9 °F 41% 29.77 in 10.0 mi ENE 11.5 mph 16.1 mph N/A   Clear
7:55 PM 74.7 °F 51.1 °F 44% 29.78 in 10.0 mi ENE 8.1 mph - N/A   Clear
8:15 PM 73.6 °F 50.7 °F 45% 29.77 in 10.0 mi East 15.0 mph - N/A   Clear
8:35 PM 72.5 °F 50.4 °F 46% 29.78 in 10.0 mi ENE 10.4 mph - N/A   Clear
8:55 PM 71.4 °F 50.7 °F 48% 29.78 in 10.0 mi ENE 9.2 mph - N/A   Clear
9:15 PM 70.3 °F 50.4 °F 49% 29.79 in 10.0 mi ENE 6.9 mph - N/A   Clear
9:35 PM 69.3 °F 50.2 °F 51% 29.79 in 10.0 mi ENE 13.8 mph - N/A   Clear
9:55 PM 68.5 °F 50.0 °F 52% 29.80 in 10.0 mi East 9.2 mph - N/A   Clear
10:15 PM 67.8 °F 49.6 °F 52% 29.80 in 10.0 mi ENE 6.9 mph - N/A   Clear
10:35 PM 66.9 °F 49.3 °F 53% 29.81 in 10.0 mi ENE 6.9 mph - N/A   Clear
10:55 PM 66.2 °F 49.1 °F 54% 29.80 in 10.0 mi East 9.2 mph - N/A   Clear
11:15 PM 65.5 °F 49.1 °F 55% 29.80 in 10.0 mi East 6.9 mph - N/A   Clear
11:35 PM 64.8 °F 49.1 °F 57% 29.79 in 10.0 mi East 6.9 mph - N/A   Clear
11:55 PM 63.9 °F 49.3 °F 59% 29.78 in 10.0 mi East 9.2 mph - N/A   Clear